TimeEST,TemperatureF,Dew PointF,Humidity,Sea Level PressureIn,VisibilityMPH,Wind Direction,Wind SpeedMPH,Gust SpeedMPH,PrecipitationIn,Events,Conditions,WindDirDegrees,DateUTC
12:53 AM,61.0,54.0,78,30.28,10.0,NNE,5.8,-,N/A,,Partly Cloudy,30,2011-12-03 05:53:00
1:53 AM,61.0,54.0,78,30.27,10.0,NNE,8.1,-,N/A,,Mostly Cloudy,30,2011-12-03 06:53:00
2:53 AM,60.1,55.0,83,30.27,10.0,NNE,5.8,-,N/A,,Overcast,30,2011-12-03 07:53:00
3:53 AM,60.1,55.0,83,30.27,10.0,NNE,4.6,-,N/A,,Overcast,30,2011-12-03 08:53:00
4:53 AM,61.0,55.0,81,30.27,10.0,NE,5.8,-,N/A,,Mostly Cloudy,50,2011-12-03 09:53:00
5:53 AM,62.1,55.0,78,30.28,10.0,NE,6.9,-,N/A,,Overcast,40,2011-12-03 10:53:00
6:53 AM,61.0,55.0,81,30.29,10.0,NE,6.9,-,N/A,,Scattered Clouds,50,2011-12-03 11:53:00
7:53 AM,62.1,55.0,78,30.30,10.0,ENE,8.1,-,0.01,,Clear,60,2011-12-03 12:53:00
8:53 AM,66.9,57.0,70,30.31,10.0,ENE,10.4,-,N/A,,Clear,60,2011-12-03 13:53:00
9:53 AM,73.0,57.0,57,30.30,10.0,ENE,12.7,-,N/A,,Clear,60,2011-12-03 14:53:00
10:53 AM,75.9,55.9,50,30.29,10.0,East,13.8,19.6,N/A,,Scattered Clouds,90,2011-12-03 15:53:00
11:53 AM,78.1,55.9,46,30.27,10.0,ESE,15.0,23.0,N/A,,Mostly Cloudy,110,2011-12-03 16:53:00
12:53 PM,77.0,55.0,47,30.24,10.0,ENE,13.8,28.8,N/A,,Mostly Cloudy,70,2011-12-03 17:53:00
1:53 PM,80.1,55.9,43,30.22,10.0,East,10.4,19.6,N/A,,Scattered Clouds,80,2011-12-03 18:53:00
3:53 PM,77.0,55.0,47,30.22,10.0,ENE,17.3,24.2,N/A,,Mostly Cloudy,60,2011-12-03 20:53:00
4:53 PM,75.9,54.0,46,30.23,10.0,ENE,12.7,19.6,N/A,,Scattered Clouds,60,2011-12-03 21:53:00
5:53 PM,73.0,57.0,57,30.24,10.0,East,12.7,-,N/A,,Scattered Clouds,80,2011-12-03 22:53:00
6:53 PM,71.1,57.0,61,30.25,10.0,ENE,8.1,-,N/A,,Scattered Clouds,60,2011-12-03 23:53:00
7:53 PM,71.1,57.0,61,30.26,10.0,ENE,9.2,-,N/A,,Overcast,60,2011-12-04 00:53:00
8:53 PM,70.0,57.0,63,30.27,10.0,ENE,10.4,-,N/A,,Mostly Cloudy,60,2011-12-04 01:53:00
9:53 PM,69.1,55.9,63,30.27,10.0,ENE,8.1,-,N/A,,Overcast,60,2011-12-04 02:53:00
10:53 PM,66.0,55.9,70,30.26,10.0,ENE,5.8,-,N/A,,Mostly Cloudy,70,2011-12-04 03:53:00
11:53 PM,64.9,55.9,73,30.24,10.0,NE,4.6,-,N/A,,Clear,50,2011-12-04 04:53:00